SCP
0 0 0 0 0 0 0 0 0 0 0 0 0 0 0 0 0 0 0 0 0 0 0 0 0 0 0 0 0 0 0 0 0 0 0 0 0 0 0 0 0 0 0 0
0 0 0 0 0 0 0 0 0 0 0 0 0 0 0 0 0 0 0 0 0 0 0 0 0 0 0 0 0 0 0 0 0 0 0 0 0 0 0 0 0 0 0 0
0 0 0 0 0 0 0 0 0 0 0 0 0 0 0 0 0 0 0 0 0 0 0 0 0 0 0 0 0 0 0 0 0 0 0 0 0 0 0 0 0 0 0 0
0 0 0 0 0 0 0 0 0 0 0 0 0 0 0 0 0 0 0 0 0 0 0 0 0 0 0 0 0 0 0 0 0 0 0 0 0 0 0 0 0 0 0 0
0 0 0 0 0 0 0 0 0 0 0 0 0 0 0 0 0 0 0 0 0 0 0 0 0 0 0 0 0 0 0 0 0 0 0 0 0 0 0 0 0 0 0 0
0 0 0 0 0 0 0 0 0 0 0 0 0 0 0 0 0 0 0 0 0 0 0 0 0 0 0 0 0 0 0 0 0 0 0 0 0 0 0 0 0 0 0 0
0 0 0 0 0 0 0 0 0 0 0 0 0 0 0 0 0 0 0 0 0 0 0 0 0 0 0 0 0 0 0 0 0 0 0 0 0 0 0 0 0 0 0 0
0 0 0 0 0 0 0 0 0 0 0 0 0 0 0 0 0 0 0 0 0 0 0 0 0 0 0 0 0 0 0 0 0 0 0 0 0 0 0 0 0 0 0 0
0 0 0 0 0 0 0 0 0 0 0 0 0 0 0 0 0 0 0 0 0 0 0 0 0 0 0 0 0 0 0 0 0 0 0 0 0 0 0 0 0 0 0 0
0 0 0 0 0 0 0 0 0 0 0 0 0 0 0 0 0 0 0 0 0 0 0 0 0 0 0 0 0 0 0 0 0 0 0 0 0 0 0 0 0 0 0 0
0 0 0 0 0 0 0 0 0 0 0 0 0 -0 0 0 0 0 0 0 0 0 0 0 0 0 0 0 0 0 0 0 0 0 0 0 0 0 0 0 0 0 0 0
0 0 0 0 0 0 0 0 0 0 0 0 0 0 0 0 0 0 0 0 0 0 0 0 0 0 0 0 0 0 0 0 0 0 0 0 0 0 0 0 0 0 0 0
0 0 0 0 0 0 0 0 0 0 0 0 0 0 0 0 0 0 0 0 0 0 0 0 0 0 0 0 0 0 0 0 0 0 0 0 0 0 0 0 0 0 0 0
0 0 0 0 0 0 0 0 0 0 0 0 0 0 0 0 0 0 0 0 0 0 0 0 0 0 0 0 0 0 0 0 0 0 0 0 0 0 0 0 0 0 0 0
0 0 0 0 0 0 0 0 0 0 0 0 0 -0 -0 0 0 0 0 0 0 0 0 0 0 0 0 0 0 0 0 0 0 0 0 0 0 0 0 0 0 0 0 0
0 0 0 0 0 0 0 0 0 0 0 0 0 -0 0 0 0 0 0 0 0 0 0 0 0 0 0 0 0 0 0 0 0 0 0 0 0 0 0 0 0 0 0 0
0 0 0 0 0 0 0 0 0 0 0 0 0 -0 0 0 0 0 0 0 0 0 0 0 0 0 0 0 0 0 0 0 0 0 0 0 0 0 0 0 0 0 0 0
0 0 0 0 0 0 0 0 0 0 0 0 0 0 0 0 0 0 0 0 0 0 0 0 0 0 0 0 0 0 0 0 0 0 0 0 0 0 0 0 0 0 0 0
0 0 0 0 0 -0 -0 0 0 0 0 0 0 0 0 0 0 0 0 0 0 0 0 0 0 0 0 0 0 0 0 0 0 0 0 0 0 0 0 0 0 0 0 0
0 0 0 0 0 0 0 0 0 0 0 0 0 0 0 0 0 0 0 0 0 0 0 0 0 0 0 0 0 0 0 0 0 0 0 0 0 0 0 0 0 0 0 0
0 0 0 0 0 0 0 0 0 0 0 0 0 0 0 0 0 0 0 0 0 0 0 0 0 0 0 0 0 0 0 0 0 0 0 -0 -0 0 0 0 0 0 0 0
0 0 0 0 0 0 0 0 0 0 0 0 0 0 0 0 0 0 0 0 0 0 0 0 0 0 0 0 0 0 0 0 0 0 0 0 0 0 0 0 0 0 0 0
0 0 0 0 0 0 0 0 0 0 0 0 0 0 0 0 0 0 0 0 0 0 0 0 0 0 0 0 0 0 0 0 0 0 0 0 0 0 0 0 0 0 0 0
0 0 0 0 0 0 0 0 0 0 0 0 0 0 0 0 0 0 0 0 0 0 0 0 0 0 0 0 0 0 0 0 0 0 0 0 0 0 0 0 0 0 0 0
0 0 0 0 0 0 0 0 0 0 0 0 0 0 0 0 0 0 0 0 0 0 0 0 0 0 0 0 0 0 0 0 0 0 0 0 0 0 0 0 0 0 0 0
0 0 0 0 0 0 0 0 0 0 0 0 0 0 0 0 0 0 0 0 0 0 0 0 0 0 0 0 0 0 0 0 0 0 0 0 0 0 0 0 0 0 0 0
Wind_Speed_500mb
25 22 36 14 10 4 15 11 13 4 9 16 24 8 24 31 13 24 49 34 29 24 22 22 26 34 34 37 34 34 35 36 39 41 41 42 44 42 46 54 50 49 55 58
5 25 12 17 14 6 15 14 10 2 7 15 12 27 16 24 18 26 27 29 29 24 20 21 25 33 38 40 36 33 31 31 31 34 42 48 51 53 53 52 53 54 55 57
9 10 8 15 11 12 3 12 9 9 6 4 7 10 16 17 29 46 42 41 40 35 25 24 27 30 32 32 33 38 40 41 43 42 41 41 44 46 49 53 56 57 56 55
4 6 23 13 21 11 6 10 6 15 10 7 7 8 12 20 27 24 52 49 45 36 28 28 27 26 22 21 25 29 37 42 44 49 52 53 53 54 53 54 57 62 64 64
8 27 28 23 21 11 9 10 15 7 10 8 3 1 11 5 17 26 30 43 41 34 34 34 29 25 22 19 20 23 21 22 24 27 31 36 41 47 53 58 64 67 67 65
5 8 4 5 4 12 11 13 16 10 6 3 12 13 10 11 13 7 15 38 38 42 41 33 25 21 20 19 18 19 21 23 27 30 32 34 35 36 38 39 41 42 44 48
7 5 7 4 12 7 11 13 5 4 3 12 5 8 26 11 11 15 25 44 47 49 45 35 27 23 21 18 19 21 25 28 32 34 38 40 41 44 45 45 45 43 41 39
10 13 1 10 6 7 7 11 10 12 8 7 2 14 13 11 23 37 60 58 51 45 43 36 28 23 22 21 21 24 27 31 33 34 35 37 40 42 44 46 46 44 41 38
9 3 1 6 6 2 7 4 5 11 6 6 9 13 15 4 5 27 45 50 49 46 45 37 30 24 21 22 23 25 28 30 31 31 31 32 32 34 36 39 42 42 40 35
9 8 3 3 3 1 1 4 5 5 5 7 9 11 12 8 15 17 21 40 45 47 42 36 29 24 23 25 26 28 29 29 30 29 28 27 27 27 29 31 33 33 32 29
10 7 5 4 10 15 3 3 6 6 7 7 4 11 10 19 22 27 29 50 51 47 42 36 29 25 24 26 27 28 30 31 31 30 27 26 25 26 27 28 28 27 25 25
3 8 7 5 5 7 3 12 11 6 8 7 6 11 8 15 15 26 35 45 33 45 41 34 29 26 28 29 30 31 33 35 35 32 27 25 23 23 25 28 28 28 27 27
12 3 7 4 1 4 12 9 5 7 6 11 10 10 8 2 15 34 40 30 30 42 40 33 29 29 29 30 33 34 37 37 33 29 24 21 20 19 19 21 26 29 27 22
11 7 10 10 8 10 12 21 15 11 8 7 11 8 7 7 14 22 33 34 38 43 37 32 28 27 28 30 33 37 35 29 21 18 15 12 9 8 7 6 5 4 7 6
7 8 5 3 4 6 6 22 31 26 31 17 22 21 18 18 18 32 37 37 42 38 34 30 27 24 26 29 33 29 17 13 11 8 7 5 4 2 4 6 7 6 4 4
5 2 5 6 4 1 6 12 28 36 27 24 8 15 15 29 22 28 42 45 43 39 33 27 25 23 24 26 23 14 10 9 9 11 10 12 8 8 9 10 10 10 10 11
5 8 6 7 2 4 12 30 26 20 19 31 26 32 7 9 27 42 50 47 44 38 32 26 24 21 18 17 12 12 12 10 12 14 13 12 11 11 11 12 10 9 9 9
8 7 5 5 5 3 12 3 19 33 15 32 16 14 17 19 43 52 54 49 39 35 31 27 22 17 13 9 11 12 14 11 11 13 15 17 17 16 14 15 14 13 13 12
7 8 4 6 6 14 9 6 11 14 18 33 37 19 22 17 31 20 43 38 32 30 24 21 18 14 12 10 12 12 13 12 12 12 12 14 15 16 16 17 18 18 17 16
8 6 6 4 4 9 3 1 7 8 11 6 35 22 16 34 16 8 40 35 32 27 23 22 20 16 13 12 14 13 12 15 15 16 15 17 19 20 21 22 21 21 16 13
6 3 9 9 6 13 12 6 9 4 8 18 22 43 42 16 16 28 21 35 28 25 26 24 21 16 13 12 13 15 15 16 19 20 21 23 25 26 25 22 17 15 12 10
12 10 7 7 6 14 6 5 8 7 6 9 7 40 51 45 22 16 19 33 35 33 31 28 25 21 17 16 15 14 13 16 19 21 22 23 22 20 18 17 13 9 7 6
4 12 9 14 10 11 13 14 16 12 6 4 7 21 47 32 24 23 28 34 34 33 31 28 25 24 22 19 17 16 15 17 20 21 21 19 19 17 15 12 9 4 2 6
6 10 6 4 8 15 22 31 23 18 14 7 7 16 25 26 22 21 25 31 32 33 36 32 34 32 29 26 23 21 19 19 20 22 20 19 18 16 13 9 6 4 4 8
9 2 7 10 10 15 26 25 30 28 22 16 16 17 18 19 19 20 22 26 31 32 30 41 42 37 33 33 30 27 25 24 22 24 22 22 21 18 15 12 9 10 10 11
16 11 8 9 16 21 30 30 37 34 28 23 22 20 18 16 17 20 24 27 31 36 38 44 48 48 42 38 36 35 33 30 28 27 27 25 23 22 18 16 14 14 14 15
Wind_Direction_500mb
209 161 194 165 123 121 135 118 154 187 173 179 219 208 239 258 259 232 226 234 234 231 230 221 213 211 223 232 229 216 220 224 226 229 235 241 245 248 250 252 259 260 262 264
191 182 157 129 173 99 138 155 181 69 221 184 203 234 233 247 246 244 226 220 218 220 222 222 213 212 214 223 227 222 224 228 227 228 233 237 242 247 253 254 255 259 262 263
163 140 162 153 174 185 187 165 168 155 92 70 123 284 242 252 244 252 250 238 232 227 217 202 203 211 218 220 223 230 238 244 247 245 243 243 244 247 249 250 253 257 264 264
5 153 176 173 192 142 174 205 189 165 127 195 154 267 250 229 234 230 239 236 231 209 203 200 204 213 216 228 241 251 256 256 252 252 253 254 255 256 258 262 262 264 265 264
202 182 173 183 193 141 206 152 146 121 100 112 190 310 266 241 235 232 216 205 201 201 204 191 197 212 220 227 237 241 242 245 247 250 254 257 261 264 263 263 264 266 265 265
39 46 64 179 85 172 139 87 53 56 90 272 194 166 255 210 217 193 183 196 193 180 170 171 181 197 213 225 233 238 245 251 255 259 263 264 264 265 265 265 267 268 270 267
66 11 344 359 112 60 123 99 39 26 350 227 139 163 244 248 234 184 176 173 167 170 167 171 184 193 215 231 247 255 259 262 262 262 263 265 267 268 270 271 272 274 275 273
158 164 327 353 84 174 165 147 150 185 203 244 156 226 245 243 268 214 178 167 166 171 175 185 191 209 225 243 259 270 275 274 272 270 271 271 270 268 267 268 269 272 274 276
130 46 46 23 353 2 198 137 163 107 53 64 221 288 295 119 121 154 172 175 178 179 179 188 201 215 234 253 266 275 277 279 280 280 279 278 276 272 269 267 269 269 268 267
180 96 13 73 241 76 154 137 68 359 131 251 264 275 240 239 188 164 170 177 179 179 185 196 205 221 238 256 268 275 282 283 280 281 282 283 276 272 272 272 272 272 271 266
132 106 127 105 208 184 111 124 90 112 165 189 303 263 218 214 186 179 175 181 179 185 195 199 209 225 244 258 267 276 281 281 280 278 279 282 280 274 270 270 271 271 269 264
132 112 137 178 211 229 171 203 177 163 225 223 154 277 326 247 183 169 172 181 190 203 198 200 213 233 248 260 268 275 282 283 278 274 275 280 282 279 272 266 264 265 265 266
177 138 112 106 11 273 217 201 172 114 63 208 169 257 344 75 153 183 181 191 196 190 190 198 216 234 251 260 269 278 281 283 274 266 269 276 281 283 282 273 264 261 269 266
144 146 172 187 204 136 192 193 189 170 185 197 219 268 277 214 181 189 196 186 187 186 192 205 221 240 255 268 280 281 284 274 253 256 259 263 279 292 326 354 318 286 241 255
120 171 136 278 136 136 219 192 195 204 214 207 236 246 246 216 202 189 188 182 180 189 202 220 237 253 269 279 280 280 272 252 239 217 210 193 177 142 103 82 57 95 116 143
22 148 88 325 274 171 271 234 209 214 223 245 242 260 234 204 207 191 186 184 192 202 213 226 241 251 265 277 274 251 223 220 185 191 188 166 156 151 125 109 91 63 96 110
102 123 81 265 358 355 299 230 210 219 216 210 210 225 235 207 193 192 188 197 204 212 219 229 237 251 265 272 248 211 197 193 191 197 180 167 166 156 155 142 134 136 130 113
127 101 93 206 34 287 242 238 216 215 225 218 239 191 205 212 202 200 199 205 212 216 219 222 228 238 244 228 196 189 185 182 184 186 183 178 186 178 163 158 153 130 107 100
130 121 121 143 200 283 274 194 169 172 254 220 219 209 212 212 182 202 206 214 224 219 218 213 214 221 217 194 179 172 167 156 175 182 178 180 174 169 155 140 124 115 103 98
153 93 129 173 206 250 276 325 208 150 283 268 209 195 167 162 182 219 203 206 206 206 209 207 203 204 205 180 157 144 142 140 146 151 164 161 155 150 140 127 119 111 104 97
151 159 216 244 275 286 258 221 147 138 258 316 224 199 179 187 198 206 211 201 203 204 200 197 198 198 191 170 151 149 140 127 131 135 139 144 138 133 130 129 127 118 113 96
170 169 195 176 228 273 207 118 194 243 312 328 306 195 187 190 196 200 198 193 195 198 198 200 202 199 192 185 174 168 153 153 152 151 150 143 141 149 143 138 132 126 103 63
213 188 183 185 214 250 240 243 267 254 294 327 125 176 183 183 185 188 193 198 203 207 207 205 207 207 202 198 193 191 178 178 173 171 166 159 166 166 157 156 147 126 22 351
282 181 221 128 257 241 258 243 257 244 249 244 201 167 173 180 186 194 201 207 210 219 221 218 214 214 212 207 204 197 196 189 185 186 184 185 192 194 188 190 199 227 288 313
223 139 225 256 299 281 271 251 241 239 239 227 193 185 181 184 190 203 214 220 227 224 227 232 230 227 224 221 210 212 208 203 201 203 204 206 210 212 213 216 232 258 276 292
228 223 192 234 265 249 258 268 236 221 218 205 194 191 201 212 220 229 234 238 241 242 239 235 236 235 232 229 228 221 216 215 213 216 218 218 221 224 227 233 241 254 268 288
Wind_Speed_850mb
25 22 36 14 10 4 15 11 13 4 9 16 24 8 24 31 13 24 49 34 29 24 22 22 26 34 34 37 34 34 35 36 39 41 41 42 44 42 46 54 50 49 55 58
5 25 12 17 14 6 15 14 10 2 7 15 12 27 16 24 18 26 27 29 29 24 20 21 25 33 38 40 36 33 31 31 31 34 42 48 51 53 53 52 53 54 55 57
9 10 8 15 11 12 3 12 9 9 6 4 7 10 16 17 29 46 42 41 40 35 25 24 27 30 32 32 33 38 40 41 43 42 41 41 44 46 49 53 56 57 56 55
4 6 23 13 21 11 6 10 6 15 10 7 7 8 12 20 27 24 52 49 45 36 28 28 27 26 22 21 25 29 37 42 44 49 52 53 53 54 53 54 57 62 64 64
8 27 28 23 21 11 9 10 15 7 10 8 3 1 11 5 17 26 30 43 41 34 34 34 29 25 22 19 20 23 21 22 24 27 31 36 41 47 53 58 64 67 67 65
5 8 4 5 4 12 11 13 16 10 6 3 12 13 10 11 13 7 15 38 38 42 41 33 25 21 20 19 18 19 21 23 27 30 32 34 35 36 38 39 41 42 44 48
7 5 7 4 12 7 11 13 5 4 3 12 5 8 26 11 11 15 25 44 47 49 45 35 27 23 21 18 19 21 25 28 32 34 38 40 41 44 45 45 45 43 41 39
10 13 1 10 6 7 7 11 10 12 8 7 2 14 13 11 23 37 60 58 51 45 43 36 28 23 22 21 21 24 27 31 33 34 35 37 40 42 44 46 46 44 41 38
9 3 1 6 6 2 7 4 5 11 6 6 9 13 15 4 5 27 45 50 49 46 45 37 30 24 21 22 23 25 28 30 31 31 31 32 32 34 36 39 42 42 40 35
9 8 3 3 3 1 1 4 5 5 5 7 9 11 12 8 15 17 21 40 45 47 42 36 29 24 23 25 26 28 29 29 30 29 28 27 27 27 29 31 33 33 32 29
10 7 5 4 10 15 3 3 6 6 7 7 4 11 10 19 22 27 29 50 51 47 42 36 29 25 24 26 27 28 30 31 31 30 27 26 25 26 27 28 28 27 25 25
3 8 7 5 5 7 3 12 11 6 8 7 6 11 8 15 15 26 35 45 33 45 41 34 29 26 28 29 30 31 33 35 35 32 27 25 23 23 25 28 28 28 27 27
12 3 7 4 1 4 12 9 5 7 6 11 10 10 8 2 15 34 40 30 30 42 40 33 29 29 29 30 33 34 37 37 33 29 24 21 20 19 19 21 26 29 27 22
11 7 10 10 8 10 12 21 15 11 8 7 11 8 7 7 14 22 33 34 38 43 37 32 28 27 28 30 33 37 35 29 21 18 15 12 9 8 7 6 5 4 7 6
7 8 5 3 4 6 6 22 31 26 31 17 22 21 18 18 18 32 37 37 42 38 34 30 27 24 26 29 33 29 17 13 11 8 7 5 4 2 4 6 7 6 4 4
5 2 5 6 4 1 6 12 28 36 27 24 8 15 15 29 22 28 42 45 43 39 33 27 25 23 24 26 23 14 10 9 9 11 10 12 8 8 9 10 10 10 10 11
5 8 6 7 2 4 12 30 26 20 19 31 26 32 7 9 27 42 50 47 44 38 32 26 24 21 18 17 12 12 12 10 12 14 13 12 11 11 11 12 10 9 9 9
8 7 5 5 5 3 12 3 19 33 15 32 16 14 17 19 43 52 54 49 39 35 31 27 22 17 13 9 11 12 14 11 11 13 15 17 17 16 14 15 14 13 13 12
7 8 4 6 6 14 9 6 11 14 18 33 37 19 22 17 31 20 43 38 32 30 24 21 18 14 12 10 12 12 13 12 12 12 12 14 15 16 16 17 18 18 17 16
8 6 6 4 4 9 3 1 7 8 11 6 35 22 16 34 16 8 40 35 32 27 23 22 20 16 13 12 14 13 12 15 15 16 15 17 19 20 21 22 21 21 16 13
6 3 9 9 6 13 12 6 9 4 8 18 22 43 42 16 16 28 21 35 28 25 26 24 21 16 13 12 13 15 15 16 19 20 21 23 25 26 25 22 17 15 12 10
12 10 7 7 6 14 6 5 8 7 6 9 7 40 51 45 22 16 19 33 35 33 31 28 25 21 17 16 15 14 13 16 19 21 22 23 22 20 18 17 13 9 7 6
4 12 9 14 10 11 13 14 16 12 6 4 7 21 47 32 24 23 28 34 34 33 31 28 25 24 22 19 17 16 15 17 20 21 21 19 19 17 15 12 9 4 2 6
6 10 6 4 8 15 22 31 23 18 14 7 7 16 25 26 22 21 25 31 32 33 36 32 34 32 29 26 23 21 19 19 20 22 20 19 18 16 13 9 6 4 4 8
9 2 7 10 10 15 26 25 30 28 22 16 16 17 18 19 19 20 22 26 31 32 30 41 42 37 33 33 30 27 25 24 22 24 22 22 21 18 15 12 9 10 10 11
16 11 8 9 16 21 30 30 37 34 28 23 22 20 18 16 17 20 24 27 31 36 38 44 48 48 42 38 36 35 33 30 28 27 27 25 23 22 18 16 14 14 14 15
Wind_Direction_850mb
209 161 194 165 123 121 135 118 154 187 173 179 219 208 239 258 259 232 226 234 234 231 230 221 213 211 223 232 229 216 220 224 226 229 235 241 245 248 250 252 259 260 262 264
191 182 157 129 173 99 138 155 181 69 221 184 203 234 233 247 246 244 226 220 218 220 222 222 213 212 214 223 227 222 224 228 227 228 233 237 242 247 253 254 255 259 262 263
163 140 162 153 174 185 187 165 168 155 92 70 123 284 242 252 244 252 250 238 232 227 217 202 203 211 218 220 223 230 238 244 247 245 243 243 244 247 249 250 253 257 264 264
5 153 176 173 192 142 174 205 189 165 127 195 154 267 250 229 234 230 239 236 231 209 203 200 204 213 216 228 241 251 256 256 252 252 253 254 255 256 258 262 262 264 265 264
202 182 173 183 193 141 206 152 146 121 100 112 190 310 266 241 235 232 216 205 201 201 204 191 197 212 220 227 237 241 242 245 247 250 254 257 261 264 263 263 264 266 265 265
39 46 64 179 85 172 139 87 53 56 90 272 194 166 255 210 217 193 183 196 193 180 170 171 181 197 213 225 233 238 245 251 255 259 263 264 264 265 265 265 267 268 270 267
66 11 344 359 112 60 123 99 39 26 350 227 139 163 244 248 234 184 176 173 167 170 167 171 184 193 215 231 247 255 259 262 262 262 263 265 267 268 270 271 272 274 275 273
158 164 327 353 84 174 165 147 150 185 203 244 156 226 245 243 268 214 178 167 166 171 175 185 191 209 225 243 259 270 275 274 272 270 271 271 270 268 267 268 269 272 274 276
130 46 46 23 353 2 198 137 163 107 53 64 221 288 295 119 121 154 172 175 178 179 179 188 201 215 234 253 266 275 277 279 280 280 279 278 276 272 269 267 269 269 268 267
180 96 13 73 241 76 154 137 68 359 131 251 264 275 240 239 188 164 170 177 179 179 185 196 205 221 238 256 268 275 282 283 280 281 282 283 276 272 272 272 272 272 271 266
132 106 127 105 208 184 111 124 90 112 165 189 303 263 218 214 186 179 175 181 179 185 195 199 209 225 244 258 267 276 281 281 280 278 279 282 280 274 270 270 271 271 269 264
132 112 137 178 211 229 171 203 177 163 225 223 154 277 326 247 183 169 172 181 190 203 198 200 213 233 248 260 268 275 282 283 278 274 275 280 282 279 272 266 264 265 265 266
177 138 112 106 11 273 217 201 172 114 63 208 169 257 344 75 153 183 181 191 196 190 190 198 216 234 251 260 269 278 281 283 274 266 269 276 281 283 282 273 264 261 269 266
144 146 172 187 204 136 192 193 189 170 185 197 219 268 277 214 181 189 196 186 187 186 192 205 221 240 255 268 280 281 284 274 253 256 259 263 279 292 326 354 318 286 241 255
120 171 136 278 136 136 219 192 195 204 214 207 236 246 246 216 202 189 188 182 180 189 202 220 237 253 269 279 280 280 272 252 239 217 210 193 177 142 103 82 57 95 116 143
22 148 88 325 274 171 271 234 209 214 223 245 242 260 234 204 207 191 186 184 192 202 213 226 241 251 265 277 274 251 223 220 185 191 188 166 156 151 125 109 91 63 96 110
102 123 81 265 358 355 299 230 210 219 216 210 210 225 235 207 193 192 188 197 204 212 219 229 237 251 265 272 248 211 197 193 191 197 180 167 166 156 155 142 134 136 130 113
127 101 93 206 34 287 242 238 216 215 225 218 239 191 205 212 202 200 199 205 212 216 219 222 228 238 244 228 196 189 185 182 184 186 183 178 186 178 163 158 153 130 107 100
130 121 121 143 200 283 274 194 169 172 254 220 219 209 212 212 182 202 206 214 224 219 218 213 214 221 217 194 179 172 167 156 175 182 178 180 174 169 155 140 124 115 103 98
153 93 129 173 206 250 276 325 208 150 283 268 209 195 167 162 182 219 203 206 206 206 209 207 203 204 205 180 157 144 142 140 146 151 164 161 155 150 140 127 119 111 104 97
151 159 216 244 275 286 258 221 147 138 258 316 224 199 179 187 198 206 211 201 203 204 200 197 198 198 191 170 151 149 140 127 131 135 139 144 138 133 130 129 127 118 113 96
170 169 195 176 228 273 207 118 194 243 312 328 306 195 187 190 196 200 198 193 195 198 198 200 202 199 192 185 174 168 153 153 152 151 150 143 141 149 143 138 132 126 103 63
213 188 183 185 214 250 240 243 267 254 294 327 125 176 183 183 185 188 193 198 203 207 207 205 207 207 202 198 193 191 178 178 173 171 166 159 166 166 157 156 147 126 22 351
282 181 221 128 257 241 258 243 257 244 249 244 201 167 173 180 186 194 201 207 210 219 221 218 214 214 212 207 204 197 196 189 185 186 184 185 192 194 188 190 199 227 288 313
223 139 225 256 299 281 271 251 241 239 239 227 193 185 181 184 190 203 214 220 227 224 227 232 230 227 224 221 210 212 208 203 201 203 204 206 210 212 213 216 232 258 276 292
228 223 192 234 265 249 258 268 236 221 218 205 194 191 201 212 220 229 234 238 241 242 239 235 236 235 232 229 228 221 216 215 213 216 218 218 221 224 227 233 241 254 268 288